User: anonymous   Login
Location: Lawrence Hall of Science
(37.8785°N, 122.2415°W)
Time: 12:15:04
(UTC-08:00)
Language:

Cosmos 2098 Rocket - Orbit

View from above orbital plane
View from above orbital plane
View from above satellite
View from above satellite

Ground track
Ground track

The orbit data is extracted from the following two-line orbital elements,

1 20775U 90078B   17352.05298082  .00001680  00000-0  80737-4 0  9991
2 20775  82.9300 257.3621 0585869 135.3839 229.6086 14.31555875375062
Epoch (UTC): 18 December 2017 01:16:17
Eccentricity: 0.0585869
inclination: 82.9300°
perigee height: 367 km
apogee height: 1206 km
right ascension of ascending node: 257.3621°
argument of perigee: 135.3839°
revolutions per day: 14.31555875
mean anomaly at epoch: 229.6086°
orbit number at epoch: 37506

The dashed part of the orbit path shows where the satellite is in the earth's shadow,  

DLR